Station KECA2 - 9450460 - Ketchikan, AK Image indicating link to RSS feed of recent meteorological observations for station KECA2


Conditions at KECA2 as of
(2:18 am AKDT)
1018 GMT on 07/21/2024:
     

Click on the graph icon in the table below to see a time series plot of the last five days of that observation.

5-day plot - Wind Speed Wind Speed (WSPD): 0.0 kts
5-day plot - Wind Gust Wind Gust (GST): 1.0 kts
5-day plot - Atmospheric Pressure Atmospheric Pressure (PRES):30.14 in
5-day plot - Air Temperature Air Temperature (ATMP): 57.9 °F
5-day plot - Water Temperature Water Temperature (WTMP): 57.6 °F
5-day plot - Wind Speed at 10 Meters Wind Speed at 10 meters (WSPD10M): 0.0 kts
5-day plot - Wind Speed at 20 Meters Wind Speed at 20 meters (WSPD20M): 0.0 kts
5-day plot -  Wind Speed, Wind Gust and Atmospheric Pressure Combined plot of Wind Speed, Gust, and Air Pressure
NOS Water Level Observation Network Water Level
Previous observations
TIME
(AKDT)
5-day plot - Wind Direction
WDIR
 
5-day plot - Wind Speed
WSPD
kts
5-day plot - Wind Gust
GST
kts
5-day plot - Wave Height
WVHT
ft
5-day plot - Dominant Wave Period
DPD
sec
5-day plot - Average Wave Period
APD
sec
5-day plot - Mean Wave Direction
MWD
 
5-day plot - Atmospheric Pressure
PRES
in
5-day plot - Pressure Tendency
PTDY
in
5-day plot - Air Temperature
ATMP
°F
5-day plot - Water Temperature
WTMP
°F
5-day plot - Dew Point
DEWP
°F
5-day plot - Salinity
SAL
psu
5-day plot - Visibility
VIS
nmi
5-day plot - Tide (above MLLW)
TIDE
ft
2024-07-21 02:12 am- 0.0 0.0----30.14- 58.1 57.4----
2024-07-21 02:06 am- 0.0 0.0----30.14- 58.1 57.0----
2024-07-21 02:00 am- 0.0 0.0----30.14-0.03 57.9 56.5----
2024-07-21 01:54 am- 0.0 0.0----30.15- 58.1 56.5----
2024-07-21 01:48 am- 0.0 0.0----30.15- 58.3 56.5----
2024-07-21 01:42 am- 0.0 0.0----30.15- 58.3 56.7----
2024-07-21 01:36 am- 0.0 1.9----30.15- 58.3 56.7----
2024-07-21 01:30 am-------30.15- 58.5 56.8----
2024-07-21 01:24 am-------30.15- 58.5 56.8----
2024-07-21 01:18 am- 0.0 1.0----30.15- 58.6 56.8----
2024-07-21 01:12 am- 0.0 1.9----30.15- 58.6 56.8----
2024-07-21 01:06 am W 1.9 1.9----30.16- 58.8 56.8----
2024-07-21 01:00 amWNW 1.9 1.9------ 58.6 57.0----
2024-07-21 12:54 am- 0.0 1.0------ 58.8 57.0----
2024-07-21 12:48 am- 0.0 1.0----30.16- 58.8 56.8----
2024-07-21 12:42 am- 0.0 0.0----30.16- 58.6 57.2----
2024-07-21 12:36 am- 0.0 1.0----30.16- 58.8 57.4----
2024-07-21 12:30 am- 0.0 1.0----30.16- 58.6 57.4----
2024-07-21 12:24 am- 0.0 1.0----30.16- 58.8 57.9----
2024-07-21 12:18 am- 0.0 1.0----30.16- 58.6 57.9----
2024-07-21 12:12 am- 0.0 1.9----30.16- 58.6 57.9----
2024-07-21 12:06 am- 0.0 1.0----30.16- 59.0 57.9----
2024-07-21 12:00 am- 0.0 1.9----30.16-0.02 59.0 57.9----
2024-07-20 11:54 pmENE 1.0 1.9----30.16- 58.8 57.9----
2024-07-20 11:48 pmENE 1.0 2.9----30.16- 58.8 57.9----
2024-07-20 11:42 pm E 1.9 1.9----30.17- 58.8 57.9----
2024-07-20 11:36 pm E 1.9 2.9----30.17- 58.8 57.9----
2024-07-20 11:30 pm E 1.9 2.9----30.17- 58.8 57.9----
2024-07-20 11:24 pm E 1.0 4.1----30.17- 58.8 57.9----
2024-07-20 11:18 pm E 2.9 4.1----30.17- 58.8 57.9----
2024-07-20 11:12 pmESE 1.9 4.1----30.17- 59.0 57.9----
2024-07-20 11:06 pm E 2.9 4.1----30.17- 59.0 57.9----
2024-07-20 11:00 pm E 1.9 4.1----30.18-0.01 59.0 57.9----
2024-07-20 10:54 pm E 1.9 2.9----30.18- 59.0 58.1----
2024-07-20 10:48 pm E 1.9 4.1----30.18- 59.0 58.3----
2024-07-20 10:42 pm E 1.9 4.1----30.18- 59.2 58.5----
2024-07-20 10:36 pmESE 2.9 5.1----30.18- 59.2 58.6----
2024-07-20 10:30 pmESE 1.9 2.9----30.18- 59.4 58.8----
2024-07-20 10:24 pmESE 1.9 4.1----30.18- 59.5 59.0----
2024-07-20 10:18 pmESE 1.9 2.9----30.18-- 59.4----
2024-07-20 10:12 pm E 1.9 1.9----30.18-- 59.5----
2024-07-20 10:06 pm- 0.0 1.9----30.18-- 59.7----
2024-07-20 10:00 pm E 1.0 2.9----30.18-0.01- 60.1----
2024-07-20 09:54 pm S 1.9 2.9----30.18-- 60.1----
2024-07-20 09:48 pm- 0.0 1.9----30.18- 60.1 60.3----
2024-07-20 09:42 pm E 1.9 2.9----30.18- 60.1 60.3----
2024-07-20 09:36 pm- 0.0 2.9----30.18- 60.3 60.3----
2024-07-20 09:30 pm SE 1.9 2.9----30.18-- 60.3----
2024-07-20 09:24 pmESE 1.9 2.9----30.18-- 60.3----
2024-07-20 09:18 pm SE 1.9 2.9----30.18- 60.6 60.3----
2024-07-20 09:12 pmESE 1.9 2.9----30.18- 60.6 60.1----
2024-07-20 09:06 pm E 1.0 1.9----30.18- 61.0 59.9----
2024-07-20 09:00 pm- 0.0 1.9----30.18-0.02 61.3 59.9----
2024-07-20 08:54 pm- 0.0 2.9----30.18- 61.5 59.9----
2024-07-20 08:48 pmESE 1.9 4.1----30.18- 61.5 59.7----
2024-07-20 08:42 pm SE 2.9 5.1----30.18- 61.5 59.7----
2024-07-20 08:36 pmSSE 5.1 6.0----30.18- 61.3 59.5----
2024-07-20 08:30 pm-------30.18- 61.5 59.4----
2024-07-20 08:24 pm-------30.18- 61.7 59.2----
2024-07-20 08:18 pm-------30.18- 61.9 59.0----
2024-07-20 08:12 pm-------30.18- 61.9 58.8----
2024-07-20 08:06 pm-------30.18- 61.7 58.6----
2024-07-20 08:00 pmSSE 4.1 5.1----30.19-0.02 61.5 58.5----
2024-07-20 07:54 pm SE 4.1 5.1----30.19- 61.5 58.3----
2024-07-20 07:48 pm SE 2.9 5.1----30.19- 61.5 58.3----
2024-07-20 07:42 pm SE 4.1 5.1----30.19- 61.5 58.3----
2024-07-20 07:36 pm S 4.1 5.1----30.19- 61.3 58.3----
2024-07-20 07:30 pm--------- 61.5 58.3----
2024-07-20 07:24 pm--------- 61.2 58.3----
2024-07-20 07:18 pmSSE 4.1 5.1----30.19-- 58.3----
2024-07-20 07:12 pm SE 5.1 5.1----30.19-- 58.1----
2024-07-20 07:06 pmESE 4.1 4.1----30.19-- 58.3----
2024-07-20 07:00 pm SE 4.1 5.1----30.19-0.01 61.3 58.1----
2024-07-20 06:54 pm SE 4.1 4.1----30.19- 61.2 58.1----
2024-07-20 06:48 pmSSE 4.1 5.1----30.19- 61.3 58.1----
2024-07-20 06:42 pmSSE 2.9 4.1----30.19- 61.3 57.9----
2024-07-20 06:36 pm SE 1.9 2.9----30.19- 61.5 57.9----
2024-07-20 06:30 pmESE 2.9 2.9----30.19- 61.0 57.9----
2024-07-20 06:24 pm SE 1.9 2.9----30.20- 61.0 58.1----
2024-07-20 06:18 pmSSE 1.0 1.9----30.20- 61.2 58.1----
2024-07-20 06:12 pmSSE 1.9 1.9----30.19- 61.0 58.3----
2024-07-20 06:06 pmSSE 1.9 1.9----30.20- 60.8 58.5----
2024-07-20 06:00 pmSSE 2.9 2.9----30.20-0.01 60.8-----
2024-07-20 05:54 pm SE 1.9 2.9----30.20- 61.0-----
2024-07-20 05:48 pmSSE 2.9 4.1----30.20- 61.0 58.3----
2024-07-20 05:42 pmSSE 2.9 4.1----30.20- 61.0 58.5----
2024-07-20 05:36 pmESE 2.9 5.1----30.20- 61.2 58.5----
2024-07-20 05:30 pm SE 2.9 4.1----30.21-- 58.5----
2024-07-20 05:24 pm SE 4.1 5.1----30.20-- 58.5----
2024-07-20 05:18 pm SE 4.1 5.1----30.20- 61.0 58.5----
2024-07-20 05:12 pm SE 5.1 6.0----30.20- 61.2 58.5----
2024-07-20 05:06 pm SE 5.1 6.0----30.20- 61.3 58.5----
2024-07-20 05:00 pmESE 6.0 8.0----30.20+0.00 61.3 58.5----
2024-07-20 04:54 pm SE 6.0 7.0----30.21- 61.7 58.5----
2024-07-20 04:48 pm SE 5.1 7.0----30.21- 61.9 58.6----
2024-07-20 04:42 pm SE 5.1 6.0----30.20- 62.2 58.6----
2024-07-20 04:36 pmSSE 6.0 7.0----30.21- 61.7 58.5----
2024-07-20 04:30 pm S 2.9 2.9----30.21- 62.4 58.5----
2024-07-20 04:24 pm SE 1.0 2.9----30.20- 62.8 58.5----
2024-07-20 04:18 pm- 0.0 0.0----30.20- 63.9 58.3----
2024-07-20 04:12 pm- 0.0 0.0----30.20- 63.9 58.3----
2024-07-20 04:06 pm- 0.0 0.0----30.20- 63.7 58.1----
2024-07-20 04:00 pm- 0.0 1.9----30.21+0.00 63.1 58.1----
2024-07-20 03:54 pm S 1.0 1.9----30.21- 63.1 58.3----
2024-07-20 03:48 pmSSE 1.0 1.9----30.21- 62.4 58.3----
2024-07-20 03:42 pmSSE 1.0 1.9----30.21- 62.6 58.3----
2024-07-20 03:36 pm- 0.0 1.9----30.21- 62.2 58.3----
2024-07-20 03:30 pm SE 1.0 2.9----30.21- 62.4 58.5----
2024-07-20 03:24 pm S 1.9 1.9----30.21- 61.9 58.5----
2024-07-20 03:18 pm- 0.0 2.9----30.21- 62.1 58.6----
2024-07-20 03:12 pmSSE 1.9 2.9----30.21- 61.9 58.6----
2024-07-20 03:06 pm SE 2.9 4.1----30.21- 61.7 58.5----
2024-07-20 03:00 pm E 1.9 4.1----30.21- 62.1 58.3----
2024-07-20 02:54 pmESE 2.9 5.1----30.22- 61.9 58.3----
2024-07-20 02:48 pmESE 5.1 7.0----30.21- 61.5 58.1----
2024-07-20 02:42 pmESE 6.0 7.0----30.21- 61.5 57.9----
2024-07-20 02:36 pmESE 5.1 7.0----30.22- 61.7 57.6----
2024-07-20 02:30 pm SE 5.1 6.0----30.21-- 58.1----
2024-07-20 02:24 pmESE 5.1 6.0----30.21-- 58.6----
2024-07-20 02:18 pm SE 4.1 5.1----30.21- 62.4 57.9----
2024-07-20 02:12 pm SE 2.9 5.1----30.21- 62.8 57.6----
2024-07-20 02:06 pmSSE 4.1 5.1----30.21- 62.8 57.4----
2024-07-20 02:00 pm S 2.9 5.1----30.21+0.00 62.8 57.4----
2024-07-20 01:54 pm S 1.9 2.9----30.21- 63.1 57.6----
2024-07-20 01:48 pm SE 1.9 4.1----30.21- 63.0 57.6----
2024-07-20 01:42 pmSSE 1.0 1.9----30.21- 63.0 57.6----
2024-07-20 01:36 pmESE 1.9 4.1----30.21- 63.3 57.6----
2024-07-20 01:30 pm SE 2.9 4.1----30.21-- 57.6----
2024-07-20 01:24 pm SE 2.9 4.1----30.21-- 57.7----
2024-07-20 01:18 pm SE 1.9 2.9----30.21- 63.1 57.7----
2024-07-20 01:12 pmSSE 1.9 4.1----30.21- 63.1 57.7----
2024-07-20 01:06 pm E 1.0 2.9----30.21- 63.3 57.7----
2024-07-20 01:00 pmESE 1.9 4.1----30.21+0.00- 57.9----
2024-07-20 12:54 pm E 1.9 4.1----30.21-- 57.9----
2024-07-20 12:48 pm E 1.9 4.1----30.21-- 57.9----
2024-07-20 12:42 pmESE 2.9 5.1----30.21-- 58.1----
2024-07-20 12:36 pm E 2.9 4.1----30.21-- 58.1----
2024-07-20 12:30 pm E 1.9 5.1----30.21- 62.4 58.3----
2024-07-20 12:24 pm E 1.9 4.1----30.21- 62.2 58.5----
2024-07-20 12:18 pm E 1.0 6.0----30.21- 62.1 58.6----
2024-07-20 12:12 pm E 2.9 5.1----30.21- 61.9 58.5----
2024-07-20 12:06 pmENE 2.9 5.1----30.21- 61.7 58.8----
2024-07-20 12:00 pm E 1.9 5.1------ 61.5 58.8----
2024-07-20 11:54 am E 2.9 4.1------ 61.3 59.2----
2024-07-20 11:48 am E 2.9 5.1----30.21-- 59.2----
2024-07-20 11:42 am E 1.9 2.9----30.21-- 59.2----
2024-07-20 11:36 amESE 1.9 2.9----30.21-- 59.2----
2024-07-20 11:30 am E 2.9 2.9----30.21- 60.8 59.4----
2024-07-20 11:24 am E 1.9 2.9----30.21- 60.8 59.4----
2024-07-20 11:18 am SE 1.9 4.1----30.21- 60.8-----
2024-07-20 11:12 am E 2.9 2.9----30.21- 61.0-----
2024-07-20 11:06 amESE 1.9 2.9----30.21- 60.8-----
2024-07-20 11:00 amENE 1.9 2.9----30.21+0.01 60.4 59.5----
2024-07-20 10:54 am- 0.0 0.0----30.21- 60.8 59.5----
2024-07-20 10:48 am- 0.0 0.0----30.21-------
2024-07-20 10:42 am- 0.0 1.0----30.21-------
2024-07-20 10:36 am- 0.0 1.9----30.21-------
2024-07-20 10:30 am- 0.0 2.9----30.22- 60.4 59.5----
2024-07-20 10:24 amESE 2.9 2.9----30.22- 60.3 59.9----
2024-07-20 10:18 am SE 1.9 2.9----30.22- 60.3 59.9----
2024-07-20 10:12 am S 1.9 1.9----30.21- 60.3 59.9----
2024-07-20 10:06 am SE 1.0 1.9----30.21- 60.4 59.9----
2024-07-20 10:00 amESE 1.9 4.1----30.22+0.02 60.4 60.1----
2024-07-20 09:54 amESE 1.9 5.1----30.22- 60.3 60.1----
2024-07-20 09:48 am E 4.1 6.0----30.22- 60.3 60.1----
2024-07-20 09:42 amESE 1.9 4.1----30.22- 60.4 60.1----
2024-07-20 09:36 amESE 1.9 2.9----30.21- 60.3 60.3----
2024-07-20 09:30 amESE 1.0 1.9----30.21- 60.3 60.3----
2024-07-20 09:24 am- 0.0 0.0----30.21- 60.4 60.4----
2024-07-20 09:18 am- 0.0 0.0----30.21- 60.3 60.4----
2024-07-20 09:12 am- 0.0 0.0----30.21- 60.3 60.4----
2024-07-20 09:06 am- 0.0 0.0----30.21- 60.3 60.4----
2024-07-20 09:00 am- 0.0 0.0----30.21+0.01 60.4 60.3----
2024-07-20 08:54 am- 0.0 0.0----30.21- 60.6 60.3----
2024-07-20 08:48 am- 0.0 0.0----30.21-- 60.3----
2024-07-20 08:42 am- 0.0 0.0----30.20-- 60.1----
2024-07-20 08:36 am- 0.0 0.0----30.20-- 60.1----
2024-07-20 08:30 am- 0.0 0.0----30.20- 60.1 60.1----
2024-07-20 08:24 am- 0.0 0.0----30.20- 60.1 60.1----
2024-07-20 08:18 am- 0.0 0.0----30.20- 59.9 59.9----
2024-07-20 08:12 am- 0.0 0.0----30.20- 59.7 59.7----
2024-07-20 08:06 am- 0.0 1.0----30.20- 59.7 59.5----
2024-07-20 08:00 am- 0.0 0.0----30.20+0.00- 59.4----
2024-07-20 07:54 am- 0.0 0.0----30.20-- 59.4----
2024-07-20 07:48 am- 0.0 0.0----30.20-- 59.4----
2024-07-20 07:42 am- 0.0 1.0----30.20-- 59.2----
2024-07-20 07:36 am N 1.0 1.0----30.20-- 59.4----
2024-07-20 07:30 am- 0.0 0.0----30.20- 59.7 59.4----
2024-07-20 07:24 am- 0.0 0.0----30.20- 59.5 59.4----
2024-07-20 07:18 am- 0.0 0.0----30.20- 59.5 59.4----
2024-07-20 07:12 am- 0.0 1.0----30.20- 59.4 59.4----
2024-07-20 07:06 am- 0.0 1.0----30.20- 59.4 59.4----
2024-07-20 07:00 am- 0.0 0.0----30.20+0.00 59.5 59.5----
2024-07-20 06:54 am- 0.0 0.0----30.20- 59.5 59.5----
2024-07-20 06:48 am- 0.0 0.0----30.20-- 59.5----
2024-07-20 06:42 am- 0.0 0.0----30.20-- 59.4----
2024-07-20 06:36 am- 0.0 0.0----30.20-- 59.4----
2024-07-20 06:30 am- 0.0 1.0----30.19- 59.5 59.2----
2024-07-20 06:24 am- 0.0 1.0----30.19- 59.5 59.2----
2024-07-20 06:18 am- 0.0 0.0----30.19- 59.5 58.8----
2024-07-20 06:12 am- 0.0 1.9----30.20- 59.4 59.2----
2024-07-20 06:06 am- 0.0 2.9----30.19- 59.4 59.2----
2024-07-20 06:00 amWSW 2.9 4.1----30.19+0.01- 59.0----
2024-07-20 05:54 am- 0.0 0.0----30.19-- 59.0----
2024-07-20 05:48 am- 0.0 0.0----30.19- 59.5 59.0----
2024-07-20 05:42 am- 0.0 0.0----30.19- 59.4 59.0----
2024-07-20 05:36 am- 0.0 0.0----30.20- 59.4 59.0----
2024-07-20 05:30 am- 0.0 1.0----30.20- 59.4 59.0----
2024-07-20 05:24 am- 0.0 1.0----30.20- 59.5 59.0----
2024-07-20 05:18 am- 0.0 1.0----30.20- 59.5 59.0----
2024-07-20 05:12 am- 0.0 0.0----30.20- 59.5 59.0----
2024-07-20 05:06 am- 0.0 0.0----30.20- 59.5 59.2----
2024-07-20 05:00 am- 0.0 1.0----30.20+0.02 59.5 59.2----
2024-07-20 04:54 am- 0.0 0.0----30.19- 59.5 59.2----
2024-07-20 04:48 am- 0.0 1.0----30.20- 59.4 59.2----
2024-07-20 04:42 am- 0.0 0.0----30.20- 59.4 59.2----
2024-07-20 04:36 am- 0.0 0.0----30.19- 59.4 59.2----
2024-07-20 04:30 am- 0.0 0.0----30.19- 59.4 59.2----
2024-07-20 04:24 am- 0.0 1.0----30.19- 59.4 59.2----
2024-07-20 04:18 am- 0.0 0.0----30.19-- 59.0----
2024-07-20 04:12 am- 0.0 0.0----30.19-- 59.0----
2024-07-20 04:06 am- 0.0 0.0----30.19-- 59.0----
2024-07-20 04:00 am- 0.0 1.0----30.19+0.01 59.2 59.0----
2024-07-20 03:54 am- 0.0 0.0----30.19- 59.2 59.0----
2024-07-20 03:48 am- 0.0 0.0----30.19-------
2024-07-20 03:42 am- 0.0 0.0----30.19-------
2024-07-20 03:36 am- 0.0 1.0----30.19-------
2024-07-20 03:30 am- 0.0 1.0----30.19- 59.2 59.0----
2024-07-20 03:24 am- 0.0 0.0----30.19- 59.2 59.0----
2024-07-20 03:18 am- 0.0 1.0----30.19- 59.2 59.0----
2024-07-20 03:12 am- 0.0 1.0----30.19- 59.2 58.8----
2024-07-20 03:06 am- 0.0 0.0----30.19- 59.2 58.6----
2024-07-20 03:00 am-------30.19+0.01 59.4 58.6----
2024-07-20 02:54 am-------30.19- 59.4 58.6----
2024-07-20 02:48 am- 0.0 2.9----30.19-- 58.5----
2024-07-20 02:42 am- 0.0 1.0----30.19-- 58.5----
2024-07-20 02:36 amNNE 1.0 1.9----30.18-- 58.5----
2024-07-20 02:30 am-------30.18- 59.0 58.6----
2024-07-20 02:24 am-------30.18- 59.0 58.6----
2024-07-20 02:18 am- 0.0 1.9----30.18- 58.8 58.6----
2024-07-20 02:12 am- 0.0 1.0----30.18- 59.0 58.5----
2024-07-20 02:06 am W 1.0 1.9----30.18- 58.8 58.3----
2024-07-20 02:00 amNNW 1.0 1.9----30.18+0.00 58.8 58.1----
2024-07-20 01:54 am- 0.0 1.0----30.18- 59.0 58.1----